User: anonymous   Login
Location: Dover
(39.1580°N, 75.5250°W)
Time: 13:53:03
(UTC-04:00)
Language:

Cosmos 1437 Rocket - Orbit

View from above orbital plane
View from above orbital plane
View from above satellite
View from above satellite

Ground track
Ground track

The orbit data is extracted from the following two-line orbital elements,

1 13771U 83003B   16209.82322580  .00000812  00000-0  48232-4 0  9995
2 13771  81.1601  16.8993 0041651   3.8633 356.2904 15.09450550824854
Epoch (UTC): 27 July 2016 19:45:26
Eccentricity: 0.0041651
inclination: 81.1601°
perigee height: 509 km
apogee height: 566 km
right ascension of ascending node: 16.8993°
argument of perigee: 3.8633°
revolutions per day: 15.09450550
mean anomaly at epoch: 356.2904°
orbit number at epoch: 82485

The dashed part of the orbit path shows where the satellite is in the earth's shadow,  

DLR